EW4427 Weather Reports


time (UTC)temp
C
wind
direction
speed
KPH
gust
KPH
rain 1hr
cm
rain 24hr
cm
rain mn
cm
humidity
%
barometer
mb
20260510065045 5 0 0.0 0.0 0.00 0.00 0.00 74 1013.8
20260510064546 5 0 0.0 0.0 0.00 0.00 0.00 74 1013.8
20260510064046 5 0 0.0 0.0 0.00 0.00 0.00 73 1013.7
20260510063544 5 0 0.0 0.0 0.00 0.00 0.00 73 1013.8
20260510063051 5 0 0.0 0.0 0.00 0.00 0.00 72 1013.8
20260510062547 5 0 0.0 0.0 0.00 0.00 0.00 71 1013.7
20260510062047 5 0 0.0 0.0 0.00 0.00 0.00 71 1013.7
20260510061546 5 0 0.0 0.0 0.00 0.00 0.00 71 1013.6
20260510061048 5 0 0.0 0.0 0.00 0.00 0.00 70 1013.5
20260510060547 6 0 0.0 0.0 0.00 0.00 0.00 70 1013.4
20260510060057 6 0 0.0 0.0 0.00 0.00 0.00 69 1013.2
20260510055546 6 0 0.0 3.2 0.00 0.00 0.00 67 1013.3
20260510055045 6 0 0.0 3.2 0.00 0.00 0.00 67 1013.2
20260510054549 6 0 0.0 3.2 0.00 0.00 0.00 66 1013.2
20260510054045 7 0 0.0 4.8 0.00 0.00 0.00 66 1013.0
20260510053548 7 0 0.0 6.4 0.00 0.00 0.00 65 1013.0
20260510053055 7 0 0.0 8.0 0.00 0.00 0.00 65 1012.9
20260510052544 7 26 1.6 8.0 0.00 0.00 0.00 64 1012.9
20260510052047 7 27 1.6 11.3 0.00 0.00 0.00 64 1013.0
20260510051638 7 9 3.2 11.3 0.00 0.00 0.00 63 1012.8
20260510051045 7 0 1.6 8.0 0.00 0.00 0.00 62 1012.9
20260510050547 7 336 1.6 12.9 0.00 0.00 0.00 61 1012.8
20260510050052 8 340 1.6 12.9 0.00 0.00 0.00 60 1012.8
20260510045547 8 343 1.6 11.3 0.00 0.00 0.00 59 1012.7
20260510045047 8 80 1.6 12.9 0.00 0.00 0.00 57 1012.6
20260510044549 8 15 3.2 12.9 0.00 0.00 0.00 55 1012.4
20260510044042 9 346 3.2 14.5 0.00 0.00 0.00 54 1012.4
20260510043543 9 11 3.2 14.5 0.00 0.00 0.00 51 1012.3
20260510043125 9 32 3.2 14.5 0.00 0.00 0.00 51 1012.1
20260510042542 9 26 4.8 14.5 0.00 0.00 0.00 51 1011.9
20260510042045 8 0 0.0 6.4 0.00 0.00 0.00 53 1011.7
20260510041554 8 0 0.0 0.0 0.00 0.00 0.00 53 1011.4
20260510041043 9 0 0.0 0.0 0.00 0.00 0.00 52 1011.3
20260510040545 9 0 0.0 0.0 0.00 0.00 0.00 53 1011.2
20260510040050 9 0 0.0 0.0 0.00 0.00 0.00 52 1011.0
20260510035544 9 0 0.0 0.0 0.00 0.00 0.00 52 1011.0
20260510035046 9 0 0.0 0.0 0.00 0.00 0.00 53 1011.0
20260510034550 10 0 0.0 0.0 0.00 0.00 0.00 54 1010.9
20260510034045 10 0 0.0 0.0 0.00 0.00 0.00 54 1010.9
20260510033545 10 0 0.0 0.0 0.00 0.00 0.00 54 1010.9
20260510033056 10 0 0.0 0.0 0.00 0.00 0.00 55 1010.7
20260510032543 10 0 0.0 0.0 0.00 0.00 0.00 55 1010.7
20260510032045 10 0 0.0 0.0 0.00 0.00 0.00 54 1010.7
20260510031621 10 0 0.0 0.0 0.00 0.00 0.00 55 1010.6
20260510031043 10 0 0.0 0.0 0.00 0.00 0.00 54 1010.6
20260510030543 10 0 0.0 0.0 0.00 0.00 0.00 54 1010.6
20260510030053 10 0 0.0 1.6 0.00 0.00 0.00 54 1010.6
20260510025542 10 0 0.0 1.6 0.00 0.00 0.00 53 1010.4
20260510025042 11 0 0.0 0.0 0.00 0.00 0.00 53 1010.3
20260510024552 11 0 0.0 0.0 0.00 0.00 0.00 53 1010.3
20260510024042 11 0 0.0 0.0 0.00 0.00 0.00 52 1010.2
20260510023543 11 0 0.0 0.0 0.00 0.00 0.00 52 1010.1
20260510023057 11 0 0.0 1.6 0.00 0.00 0.00 52 1009.9
20260510022543 11 0 0.0 1.6 0.00 0.00 0.00 52 1009.8
20260510022041 11 0 0.0 0.0 0.00 0.00 0.00 53 1009.7
20260510021556 11 0 0.0 0.0 0.00 0.00 0.00 53 1009.5
20260510021041 11 0 0.0 0.0 0.00 0.00 0.00 52 1009.5
20260510020546 11 0 0.0 0.0 0.00 0.00 0.00 52 1009.4
20260510020056 12 0 0.0 0.0 0.00 0.00 0.00 51 1009.2
20260510015543 12 0 0.0 0.0 0.00 0.00 0.00 50 1009.1
20260510015043 12 0 0.0 0.0 0.00 0.00 0.00 50 1008.9
20260510014557 12 0 0.0 0.0 0.00 0.00 0.00 49 1008.8
20260510014043 12 0 0.0 0.0 0.00 0.00 0.00 49 1008.6
20260510013547 12 0 0.0 0.0 0.00 0.00 0.00 48 1008.5
20260510013055 12 0 0.0 0.0 0.00 0.00 0.00 48 1008.3
20260510012546 13 0 0.0 0.0 0.00 0.00 0.00 46 1008.2
20260510012043 13 0 0.0 0.0 0.00 0.00 0.00 46 1008.1
20260510011608 13 0 0.0 3.2 0.00 0.00 0.00 45 1008.2
20260510011046 14 0 0.0 3.2 0.00 0.00 0.00 44 1008.0
20260510010545 14 0 0.0 6.4 0.00 0.00 0.00 43 1007.8
20260510010104 14 0 0.0 8.0 0.00 0.00 0.00 43 1007.8
20260510005547 15 0 1.6 8.0 0.00 0.00 0.00 42 1007.7
20260510005046 15 0 0.0 6.4 0.00 0.00 0.00 42 1007.6
20260510004553 15 0 0.0 9.7 0.00 0.00 0.00 42 1007.5
20260510004049 15 10 1.6 9.7 0.00 0.00 0.00 41 1007.5
20260510003547 15 360 1.6 9.7 0.00 0.00 0.00 41 1007.3
20260510003054 15 0 1.6 11.3 0.00 0.00 0.00 42 1007.3
20260510002547 15 355 1.6 11.3 0.00 0.00 0.00 42 1007.2
20260510002047 16 0 1.6 17.7 0.00 0.00 0.00 42 1007.1
20260510001554 16 31 1.6 17.7 0.00 0.00 0.00 42 1007.0
20260510001048 16 43 0.0 16.1 0.00 0.00 0.00 42 1006.8
20260510000546 16 0 0.0 16.1 0.00 0.00 0.00 43 1006.8
20260510000053 16 0 1.6 16.1 0.00 0.00 0.00 42 1006.7
20260509235546 16 24 1.6 12.9 0.00 0.00 0.00 43 1006.7
20260509235045 16 15 1.6 17.7 0.00 0.00 0.00 42 1006.5
20260509234550 16 20 1.6 17.7 0.00 0.00 0.00 42 1006.5
20260509234046 16 0 3.2 17.7 0.00 0.00 0.00 40 1006.5
20260509233546 16 36 3.2 11.3 0.00 0.00 0.00 42 1006.3
20260509233053 16 44 1.6 17.7 0.00 0.00 0.00 42 1006.3
20260509232545 16 13 1.6 17.7 0.00 0.00 0.00 42 1006.3
20260509232047 16 5 1.6 19.3 0.00 0.00 0.00 41 1006.2
20260509231602 17 84 1.6 19.3 0.00 0.00 0.00 42 1006.3
20260509231045 17 341 1.6 12.9 0.00 0.00 0.00 42 1006.1
20260509230546 17 301 3.2 16.1 0.00 0.00 0.00 41 1006.0
20260509230050 17 360 4.8 16.1 0.00 0.00 0.00 40 1006.0
20260509225546 17 51 1.6 12.9 0.00 0.00 0.00 40 1005.8
20260509225046 17 42 1.6 22.5 0.00 0.00 0.00 40 1005.9
20260509224548 17 40 1.6 22.5 0.00 0.00 0.00 39 1005.7
20260509224046 18 350 4.8 16.1 0.00 0.00 0.00 38 1005.6
20260509223547 18 17 3.2 11.3 0.00 0.00 0.00 39 1005.6
20260509223055 18 42 1.6 19.3 0.00 0.00 0.00 40 1005.5
20260509222542 17 56 1.6 19.3 0.00 0.00 0.00 38 1005.4
20260509222042 17 19 1.6 14.5 0.00 0.00 0.00 39 1005.4
20260509221558 18 0 1.6 19.3 0.00 0.00 0.00 40 1005.3
20260509221042 18 27 3.2 19.3 0.00 0.00 0.00 38 1005.2
20260509220541 18 112 6.4 17.7 0.00 0.00 0.00 38 1005.1
20260509220051 18 44 3.2 16.1 0.00 0.00 0.00 39 1005.1
20260509215542 18 302 3.2 14.5 0.00 0.00 0.00 40 1005.1
20260509215045 18 11 3.2 14.5 0.00 0.00 0.00 39 1004.9
20260509214547 18 0 1.6 19.3 0.00 0.00 0.00 40 1004.9
20260509214041 19 271 3.2 19.3 0.00 0.00 0.00 39 1004.9
20260509213541 19 360 3.2 19.3 0.00 0.00 0.00 38 1004.6
20260509213120 19 212 3.2 16.1 0.00 0.00 0.00 38 1004.6
20260509212544 20 0 4.8 16.1 0.00 0.00 0.00 37 1004.6
20260509212042 20 252 3.2 16.1 0.00 0.00 0.00 38 1004.5
20260509211614 20 0 0.0 9.7 0.00 0.00 0.00 43 1004.5
20260509211042 20 34 1.6 20.9 0.00 0.00 0.00 38 1004.5
20260509210542 20 336 6.4 20.9 0.00 0.00 0.00 38 1004.3
20260509210101 20 17 3.2 19.3 0.00 0.00 0.00 37 1004.3
20260509205543 21 36 3.2 12.9 0.00 0.00 0.00 39 1004.2
20260509205043 21 58 0.0 16.1 0.00 0.00 0.00 39 1004.2
20260509204604 21 259 4.8 16.1 0.00 0.00 0.00 38 1004.2
20260509204044 21 0 1.6 16.1 0.00 0.00 0.00 41 1004.0
20260509203543 21 285 3.2 19.3 0.00 0.00 0.00 40 1004.0
20260509203059 21 28 3.2 19.3 0.00 0.00 0.00 39 1004.0
20260509202546 21 23 6.4 19.3 0.00 0.00 0.00 38 1003.8
20260509202042 21 351 4.8 19.3 0.00 0.00 0.00 38 1003.8
20260509201553 21 355 4.8 19.3 0.00 0.00 0.00 36 1003.8
20260509201041 22 336 1.6 19.3 0.00 0.00 0.00 35 1003.6
20260509200541 21 295 1.6 19.3 0.00 0.00 0.00 39 1003.3
20260509200052 20 0 1.6 11.3 0.00 0.00 0.00 37 1003.4
20260509195544 20 302 1.6 11.3 0.00 0.00 0.00 37 1003.3
20260509195042 21 48 1.6 11.3 0.00 0.00 0.00 36 1003.4
20260509194556 22 325 1.6 11.3 0.00 0.00 0.00 36 1003.3
20260509194043 22 30 1.6 11.3 0.00 0.00 0.00 38 1003.3
20260509193543 22 0 3.2 14.5 0.00 0.00 0.00 35 1003.1
20260509193112 22 248 3.2 14.5 0.00 0.00 0.00 38 1003.1
20260509192546 22 0 1.6 14.5 0.00 0.00 0.00 42 1003.1
20260509192046 22 71 3.2 12.9 0.00 0.00 0.00 38 1003.0
20260509191549 22 0 1.6 12.9 0.00 0.00 0.00 38 1002.9
20260509191046 23 196 3.2 11.3 0.00 0.00 0.00 39 1002.8
20260509190545 22 326 1.6 14.5 0.00 0.00 0.00 40 1002.7
20260509190054 22 0 3.2 14.5 0.00 0.00 0.00 37 1002.7
20260509185547 22 109 1.6 14.5 0.00 0.00 0.00 37 1002.6
20260509185046 22 0 3.2 14.5 0.00 0.00 0.00 35 1002.7
20260509184550 22 0 1.6 14.5 0.00 0.00 0.00 43 1002.5
20260509184045 21 29 0.0 14.5 0.00 0.00 0.00 41 1002.5
20260509183545 22 82 3.2 8.0 0.00 0.00 0.00 36 1002.5
20260509183056 22 217 0.0 8.0 0.00 0.00 0.00 39 1002.4
20260509182546 22 142 0.0 11.3 0.00 0.00 0.00 40 1002.5
20260509182045 21 267 3.2 11.3 0.00 0.00 0.00 37 1002.5
20260509181607 21 47 0.0 9.7 0.00 0.00 0.00 43 1002.5
20260509181046 21 136 1.6 11.3 0.00 0.00 0.00 41 1002.4
20260509180546 21 180 3.2 11.3 0.00 0.00 0.00 40 1002.4
20260509180055 21 0 1.6 16.1 0.00 0.00 0.00 43 1002.4
20260509175547 21 201 3.2 16.1 0.00 0.00 0.00 40 1002.5
20260509175047 21 146 1.6 9.7 0.00 0.00 0.00 41 1002.4
20260509174554 20 168 1.6 12.9 0.00 0.00 0.00 39 1002.5
20260509174046 21 232 1.6 16.1 0.00 0.00 0.00 41 1002.6
20260509173545 20 217 3.2 16.1 0.00 0.00 0.00 41 1002.5
20260509173052 21 269 1.6 9.7 0.00 0.00 0.00 42 1002.7
20260509172546 21 202 1.6 9.7 0.00 0.00 0.00 41 1002.7
20260509172046 20 232 3.2 9.7 0.00 0.00 0.00 39 1002.7
20260509171607 20 0 1.6 12.9 0.00 0.00 0.00 44 1002.8
20260509171045 19 308 4.8 12.9 0.00 0.00 0.00 42 1002.7
20260509170545 19 192 3.2 11.3 0.00 0.00 0.00 43 1002.9
20260509170050 18 223 1.6 11.3 0.00 0.00 0.00 48 1002.7
20260509165545 18 189 1.6 11.3 0.00 0.00 0.00 44 1002.7
20260509165045 17 207 3.2 9.7 0.00 0.00 0.00 44 1002.9
20260509164557 17 219 1.6 8.0 0.00 0.00 0.00 43 1002.9
20260509164045 17 186 0.0 3.2 0.00 0.00 0.00 48 1003.0
20260509163547 17 0 0.0 8.0 0.00 0.00 0.00 44 1003.2
20260509163059 17 0 0.0 8.0 0.00 0.00 0.00 46 1003.1
20260509162545 16 200 0.0 8.0 0.00 0.00 0.00 42 1003.1
20260509162044 16 0 0.0 6.4 0.00 0.00 0.00 45 1003.2
20260509161551 17 201 1.6 6.4 0.00 0.00 0.00 42 1003.3
20260509161045 17 0 0.0 6.4 0.00 0.00 0.00 43 1003.3
20260509160546 17 0 0.0 6.4 0.00 0.00 0.00 47 1003.3
20260509160054 16 0 0.0 9.7 0.00 0.00 0.00 45 1003.3
20260509155545 17 107 1.6 9.7 0.00 0.00 0.00 43 1003.3
20260509155048 17 0 0.0 6.4 0.00 0.00 0.00 46 1003.3
20260509154553 17 0 0.0 6.4 0.00 0.00 0.00 43 1003.3
20260509154045 17 0 0.0 6.4 0.00 0.00 0.00 47 1003.2
20260509153545 17 0 0.0 9.7 0.00 0.00 0.00 45 1003.2
20260509153053 17 0 0.0 9.7 0.00 0.00 0.00 49 1003.3
20260509152545 17 80 0.0 6.4 0.00 0.00 0.00 51 1003.2
20260509152046 17 0 0.0 3.2 0.00 0.00 0.00 52 1003.1
20260509151552 16 0 0.0 6.4 0.00 0.00 0.00 55 1002.8
20260509151048 16 200 0.0 6.4 0.00 0.00 0.00 53 1002.7
20260509150546 16 202 0.0 6.4 0.00 0.00 0.00 53 1002.6
20260509150052 16 0 0.0 8.0 0.00 0.00 0.00 56 1002.6
20260509145544 15 0 0.0 8.0 0.00 0.00 0.00 56 1002.6
20260509145043 15 0 1.6 8.0 0.00 0.00 0.00 58 1002.4
20260509144552 15 205 1.6 8.0 0.00 0.00 0.00 59 1002.4
20260509144044 16 211 1.6 4.8 0.00 0.00 0.00 57 1002.3
20260509143544 16 221 1.6 6.4 0.00 0.00 0.00 57 1002.4
20260509143104 16 0 0.0 6.4 0.00 0.00 0.00 57 1002.5
20260509142547 16 199 0.0 6.4 0.00 0.00 0.00 60 1002.4
20260509142045 15 200 0.0 6.4 0.00 0.00 0.00 59 1002.4
20260509141554 15 203 0.0 4.8 0.00 0.00 0.00 59 1002.4
20260509141047 15 191 0.0 4.8 0.00 0.00 0.00 59 1002.3
20260509140545 16 0 0.0 4.8 0.00 0.00 0.00 58 1002.2
20260509140058 16 0 0.0 3.2 0.00 0.00 0.00 59 1002.3
20260509135547 16 190 0.0 3.2 0.00 0.00 0.00 58 1002.2
20260509135047 15 0 0.0 3.2 0.00 0.00 0.00 60 1002.1
20260509134557 15 0 0.0 4.8 0.00 0.00 0.00 59 1002.0
20260509134047 15 0 0.0 8.0 0.00 0.00 0.00 63 1002.1
20260509133547 15 200 1.6 8.0 0.00 0.00 0.00 67 1002.2
20260509133101 15 228 1.6 8.0 0.00 0.00 0.00 69 1002.2
20260509132547 15 194 0.0 6.4 0.00 0.00 0.00 71 1002.2
20260509132050 14 0 1.6 6.4 0.00 0.00 0.00 72 1002.2
20260509131556 14 192 1.6 8.0 0.00 0.00 0.00 72 1002.2
20260509131048 14 256 1.6 8.0 0.00 0.00 0.00 74 1002.1
20260509130547 13 0 1.6 6.4 0.00 0.00 0.00 75 1001.7
20260509125547 13 215 0.0 6.4 0.00 0.00 0.00 76 1001.8
20260509125044 13 196 3.2 6.4 0.00 0.00 0.00 77 1001.9
20260509124605 13 0 0.0 8.0 0.00 0.00 0.00 78 1001.9
20260509124044 12 215 3.2 8.0 0.00 0.00 0.00 79 1001.8
20260509123549 12 190 1.6 11.3 0.00 0.00 0.00 80 1001.8
20260509123057 12 232 1.6 11.3 0.00 0.00 0.00 80 1001.9
20260509122543 12 214 3.2 11.3 0.00 0.00 0.00 81 1001.9
20260509122047 12 175 1.6 9.7 0.00 0.00 0.00 82 1001.9
20260509121552 12 208 0.0 6.4 0.00 0.00 0.00 82 1002.0
20260509121048 12 210 0.0 8.0 0.00 0.00 0.00 83 1002.0
20260509120545 12 0 1.6 8.0 0.00 0.00 0.00 83 1002.0
20260509120050 12 215 1.6 8.0 0.00 0.00 0.00 84 1001.9
20260509115545 11 0 1.6 8.0 0.00 0.00 0.00 84 1001.9
20260509115045 11 0 1.6 8.0 0.00 0.00 0.00 84 1001.7
20260509114556 11 196 1.6 8.0 0.00 0.00 0.00 84 1001.7
20260509114045 11 190 1.6 8.0 0.00 0.00 0.00 84 1001.8
20260509113545 11 207 1.6 8.0 0.00 0.00 0.00 84 1001.7
20260509113050 11 232 1.6 6.4 0.00 0.00 0.00 84 1001.7
20260509112545 11 200 1.6 6.4 0.00 0.00 0.00 84 1001.5
20260509112045 11 199 1.6 4.8 0.00 0.00 0.00 84 1001.5
20260509111553 11 228 0.0 4.8 0.00 0.00 0.00 84 1001.4
20260509111045 11 203 1.6 6.4 0.00 0.00 0.00 83 1001.5
20260509110545 11 225 0.0 6.4 0.00 0.00 0.00 83 1001.5
20260509110057 11 205 1.6 6.4 0.00 0.00 0.00 83 1001.3
20260509105545 11 226 1.6 6.4 0.00 0.00 0.00 84 1001.2
20260509105045 11 205 0.0 6.4 0.00 0.00 0.00 83 1001.2
20260509104548 11 219 1.6 8.0 0.00 0.00 0.00 83 1001.2
20260509104044 11 216 1.6 9.7 0.00 0.00 0.00 83 1001.1
20260509103545 11 207 3.2 9.7 0.00 0.00 0.00 83 1001.0
20260509103050 11 222 3.2 8.0 0.00 0.00 0.00 83 1000.8
20260509102545 11 219 1.6 8.0 0.00 0.00 0.00 83 1000.8
20260509102046 11 198 3.2 8.0 0.00 0.00 0.00 83 1000.8
20260509101555 11 0 1.6 9.7 0.00 0.00 0.00 83 1000.8
20260509101044 11 196 0.0 9.7 0.00 0.00 0.00 82 1000.9
20260509100545 11 198 3.2 11.3 0.00 0.00 0.00 82 1000.9
20260509100108 11 209 1.6 11.3 0.00 0.00 0.00 82 1001.0
20260509095546 11 221 3.2 9.7 0.00 0.00 0.00 82 1000.8
20260509095045 11 193 4.8 9.7 0.00 0.00 0.00 82 1001.2
20260509094551 12 0 3.2 9.7 0.00 0.00 0.00 82 1001.3
20260509094045 12 220 3.2 9.7 0.00 0.00 0.00 81 1001.3
20260509093545 12 209 3.2 12.9 0.00 0.00 0.00 81 1001.2
20260509093055 12 234 4.8 12.9 0.00 0.00 0.00 81 1001.2
20260509092545 12 221 3.2 12.9 0.00 0.00 0.00 81 1001.3
20260509092046 12 0 3.2 9.7 0.00 0.00 0.00 81 1001.3
20260509091552 12 220 1.6 11.3 0.00 0.00 0.00 81 1001.4
20260509091047 12 201 3.2 11.3 0.00 0.00 0.00 81 1001.2
20260509090548 12 243 4.8 11.3 0.00 0.00 0.00 81 1001.2
20260509090052 12 234 3.2 9.7 0.00 0.00 0.00 81 1001.3
20260509085545 12 223 4.8 12.9 0.00 0.00 0.00 81 1001.2
20260509085044 12 215 6.4 12.9 0.00 0.00 0.00 81 1001.3
20260509084558 12 202 4.8 12.9 0.00 0.00 0.00 81 1001.2
20260509084046 12 207 3.2 11.3 0.00 0.00 0.00 81 1001.3
20260509083545 12 197 3.2 11.3 0.00 0.00 0.00 81 1001.4
20260509083051 12 201 3.2 11.3 0.00 0.00 0.00 81 1001.4
20260509082545 12 208 4.8 11.3 0.00 0.00 0.00 81 1001.4
20260509082047 12 207 4.8 11.3 0.00 0.00 0.00 82 1001.3
20260509081552 12 219 4.8 11.3 0.00 0.00 0.00 81 1001.4
20260509081045 12 236 4.8 11.3 0.00 0.00 0.00 81 1001.4
20260509080545 12 218 6.4 14.5 0.00 0.00 0.00 81 1001.4
20260509080129 12 201 4.8 14.5 0.00 0.00 0.00 81 1001.4
20260509075547 12 212 4.8 11.3 0.00 0.00 0.00 81 1001.6
20260509075047 12 198 4.8 9.7 0.00 0.00 0.00 81 1001.5
20260509074557 12 209 4.8 9.7 0.00 0.00 0.00 81 1001.6
20260509074046 12 186 3.2 9.7 0.00 0.00 0.00 80 1001.6
20260509073546 12 197 3.2 9.7 0.00 0.00 0.00 80 1001.6
20260509073156 12 196 4.8 11.3 0.00 0.00 0.00 80 1001.6
20260509072546 12 215 4.8 11.3 0.00 0.00 0.00 80 1001.6
20260509072045 12 236 4.8 11.3 0.00 0.00 0.00 79 1001.6
20260509071551 12 186 4.8 11.3 0.00 0.00 0.00 78 1001.8
20260509071046 12 194 6.4 12.9 0.00 0.00 0.00 78 1001.7
20260509070545 13 200 6.4 12.9 0.00 0.00 0.00 78 1001.8
20260509070054 13 201 4.8 12.9 0.00 0.00 0.00 77 1001.8
20260509065545 13 220 4.8 16.1 0.00 0.00 0.00 78 1002.1